Atsa — WDB9987 — position and weather

sailwx.info

Track history (hours):
 
Tides and Currents Weather Stations Pressure Air Temp Water Temp Dewpoint Dewpoint Depression Visibility Wind Speed Wind Dir Waves Ship Positions

Atsa

Owner: Gardner, Hartley J, Phoenix, AZ. More information available from US FCC via Universal Licensing System and Coast Guard Vessel Documentation Center.

Last reported at 2017-Sep-19 18:20 UTC. Time now 2017-Sep-19 18:50 UTC.
Position N 39°08' W 076°14'.

Length 15 m.

MMSI: 366986060.

Date/timePositionNaut miles runAvg speedWind from/ knotsBaromVisibWave heightAir tempDewpointWater temp
2017-Sep-19 18:20N 39°08' W 076°14'0 0.0
2017-Sep-19 17:59N 39°08' W 076°14'0 0.0
2017-Sep-19 17:29N 39°08' W 076°14'1 2.5
2017-Sep-19 17:00N 39°07' W 076°16'2 4.3
2017-Sep-19 16:30N 39°05' W 076°16'3 6.6
2017-Sep-19 15:59N 39°08' W 076°19'4 7.7
2017-Sep-19 15:30N 39°12' W 076°17'4 7.6
2017-Sep-19 15:00N 39°15' W 076°15'4 7.7
2017-Sep-19 14:30N 39°18' W 076°13'4 7.4
2017-Sep-19 14:00N 39°21' W 076°09'4 7.3
2017-Sep-19 13:30N 39°23' W 076°05'3 6.5
2017-Sep-19 13:00N 39°23' W 076°01'3 5.5
2017-Sep-19 12:30N 39°23' W 075°57'3 5.8
2017-Sep-19 12:00N 39°22' W 075°54'1 1.0
2017-Sep-19 11:29N 39°22' W 075°53'0 0.0
2017-Sep-19 10:59N 39°22' W 075°53'0 0.0
2017-Sep-19 10:29N 39°22' W 075°53'0 0.0
2017-Sep-19 09:59N 39°22' W 075°53'0 0.0
2017-Sep-19 09:29N 39°22' W 075°53'0 0.0
2017-Sep-19 08:59N 39°22' W 075°53'0 0.0
2017-Sep-19 08:29N 39°22' W 075°53'0 0.0
2017-Sep-19 07:59N 39°22' W 075°53'0 0.0
2017-Sep-19 07:29N 39°22' W 075°53'0 0.0
2017-Sep-19 06:59N 39°22' W 075°53'0 0.0
2017-Sep-19 06:29N 39°22' W 075°53'0 0.0
2017-Sep-19 05:59N 39°22' W 075°53'0 0.0
2017-Sep-19 05:29N 39°22' W 075°53'0 0.0
2017-Sep-19 04:59N 39°22' W 075°53'0 0.0
2017-Sep-19 04:29N 39°22' W 075°53'0 0.0
2017-Sep-19 03:59N 39°22' W 075°53'0 0.0
2017-Sep-19 03:29N 39°22' W 075°53'0 0.0
2017-Sep-19 02:59N 39°22' W 075°53'0 0.0
2017-Sep-19 02:29N 39°22' W 075°53'0 0.0
2017-Sep-19 01:59N 39°22' W 075°53'0 0.0
2017-Sep-19 01:29N 39°22' W 075°53'0 0.0
2017-Sep-19 00:59N 39°22' W 075°53'0 0.0
2017-Sep-19 00:29N 39°22' W 075°53'0 0.0
2017-Sep-18 23:59N 39°22' W 075°53'0 0.0
2017-Sep-18 23:29N 39°22' W 075°53'0 0.0
2017-Sep-18 22:59N 39°22' W 075°53'0 0.0
2017-Sep-18 22:29N 39°22' W 075°53'0 0.0
2017-Sep-18 21:59N 39°22' W 075°53'0 0.0
2017-Sep-18 21:26N 39°22' W 075°53'0 0.0
2017-Sep-18 20:59N 39°22' W 075°53'0 0.0
2017-Sep-18 20:29N 39°22' W 075°53'0 0.0
2017-Sep-18 19:56N 39°22' W 075°53'0 0.0
2017-Sep-18 19:29N 39°22' W 075°53'0 0.0
2017-Sep-18 18:59N 39°22' W 075°53'0 0.0
2017-Sep-18 18:29N 39°22' W 075°53'0 0.0
2017-Sep-18 17:59N 39°22' W 075°53'0 0.0
2017-Sep-18 17:29N 39°22' W 075°53'0 0.0
2017-Sep-18 16:59N 39°22' W 075°53'0 0.0
2017-Sep-18 16:29N 39°22' W 075°53'0 0.0
2017-Sep-18 15:53N 39°22' W 075°53'0 0.0
2017-Sep-18 15:29N 39°22' W 075°53'0 0.0
2017-Sep-18 14:53N 39°22' W 075°53'0 0.0
2017-Sep-18 14:29N 39°22' W 075°53'0 0.0
2017-Sep-18 13:59N 39°22' W 075°53'0 0.0
2017-Sep-18 13:29N 39°22' W 075°53'0 0.0
2017-Sep-18 12:59N 39°22' W 075°53'0 0.0
2017-Sep-18 12:23N 39°22' W 075°53'0 0.0
2017-Sep-18 11:59N 39°22' W 075°53'0 0.0
2017-Sep-18 11:26N 39°22' W 075°53'0 0.0
2017-Sep-18 10:50N 39°22' W 075°53'0 0.0
2017-Sep-18 10:26N 39°22' W 075°53'0 0.0
2017-Sep-18 09:26N 39°22' W 075°53'0 0.0
2017-Sep-18 08:59N 39°22' W 075°53'0 0.0
2017-Sep-18 08:17N 39°22' W 075°53'0 0.0
2017-Sep-18 07:59N 39°22' W 075°53'0 0.0
2017-Sep-18 07:17N 39°22' W 075°53'0 0.0
2017-Sep-18 06:56N 39°22' W 075°53'0 0.0
2017-Sep-18 06:26N 39°22' W 075°53'0 0.0
2017-Sep-18 05:59N 39°22' W 075°53'0 0.0
2017-Sep-18 05:29N 39°22' W 075°53'0 0.0
2017-Sep-18 04:59N 39°22' W 075°53'0 0.0
2017-Sep-18 04:26N 39°22' W 075°53'0 0.0
2017-Sep-18 03:59N 39°22' W 075°53'0 0.0
2017-Sep-18 03:29N 39°22' W 075°53'0 0.0
2017-Sep-18 02:59N 39°22' W 075°53'0 0.0
2017-Sep-18 02:29N 39°22' W 075°53'0 0.0
2017-Sep-18 01:59N 39°22' W 075°53'0 0.0
2017-Sep-18 01:26N 39°22' W 075°53'0 0.0
2017-Sep-18 00:59N 39°22' W 075°53'0 0.0
2017-Sep-18 00:29N 39°22' W 075°53'0 0.0
2017-Sep-17 23:59N 39°22' W 075°53'0 0.0
2017-Sep-17 23:26N 39°22' W 075°53'0 0.0
2017-Sep-17 22:47N 39°22' W 075°53'0 0.0
2017-Sep-17 22:23N 39°22' W 075°53'0 0.0
2017-Sep-17 21:53N 39°22' W 075°53'0 0.0
2017-Sep-17 21:11N 39°22' W 075°53'0 0.0
2017-Sep-17 20:50N 39°22' W 075°53'0 0.0
2017-Sep-17 20:29N 39°22' W 075°53'0 0.0
2017-Sep-17 19:23N 39°22' W 075°53'0 0.0
2017-Sep-17 18:59N 39°22' W 075°53'0 0.0
2017-Sep-17 18:29N 39°22' W 075°53'0 0.0
2017-Sep-17 17:56N 39°22' W 075°53'0 0.0
2017-Sep-17 17:29N 39°22' W 075°53'0 0.0
2017-Sep-17 16:59N 39°22' W 075°53'0 0.0
2017-Sep-17 16:29N 39°22' W 075°53'0 0.0
2017-Sep-17 15:59N 39°22' W 075°53'0 0.0
2017-Sep-17 15:30N 39°22' W 075°53'2 3.6
2017-Sep-17 15:00N 39°22' W 075°55'2 5.0
2017-Sep-17 14:30N 39°22' W 075°59'3 5.3
2017-Sep-17 14:00N 39°23' W 076°02'3 4.5
2017-Sep-17 13:21N 39°26' W 076°02'2 6.5
2017-Sep-17 13:00N 39°28' W 076°03'3 5.5
2017-Sep-17 12:25N 39°31' W 076°05'2 4.3
2017-Sep-17 11:55N 39°33' W 076°05'0 0.0
2017-Sep-17 11:25N 39°33' W 076°05'0 0.0
2017-Sep-17 10:58N 39°33' W 076°05'0 0.0
2017-Sep-17 10:28N 39°33' W 076°05'0 0.0
2017-Sep-17 09:59N 39°33' W 076°05'0 0.0
2017-Sep-17 09:29N 39°33' W 076°05'0 0.0
2017-Sep-17 08:58N 39°33' W 076°05'0 0.0
2017-Sep-17 08:25N 39°33' W 076°05'0 0.0
2017-Sep-17 07:59N 39°33' W 076°05'0 0.0
2017-Sep-17 07:28N 39°33' W 076°05'0 0.0
2017-Sep-17 06:59N 39°33' W 076°05'0 0.0
2017-Sep-17 06:28N 39°33' W 076°05'0 0.0
2017-Sep-17 05:58N 39°33' W 076°05'0 0.0
2017-Sep-17 05:25N 39°33' W 076°05'0 0.0
2017-Sep-17 04:58N 39°33' W 076°05'0 0.0
2017-Sep-17 04:22N 39°33' W 076°05'0 0.0
2017-Sep-17 03:58N 39°33' W 076°05'0 0.0
2017-Sep-17 03:28N 39°33' W 076°05'0 0.0
2017-Sep-17 02:55N 39°33' W 076°05'0 0.0
2017-Sep-17 02:28N 39°33' W 076°05'0 0.0
2017-Sep-17 01:58N 39°33' W 076°05'0 0.0
2017-Sep-17 01:28N 39°33' W 076°05'0 0.0
2017-Sep-17 00:58N 39°33' W 076°05'0 0.0
2017-Sep-17 00:25N 39°33' W 076°05'0 0.0
2017-Sep-16 23:58N 39°33' W 076°05'0 0.0
2017-Sep-16 23:22N 39°33' W 076°05'0 0.0
2017-Sep-16 22:58N 39°33' W 076°05'0 0.0
2017-Sep-16 22:28N 39°33' W 076°05'0 0.0
2017-Sep-16 21:58N 39°33' W 076°05'0 0.0
2017-Sep-16 21:28N 39°33' W 076°05'0 0.0
2017-Sep-16 20:58N 39°33' W 076°05'0 0.0
2017-Sep-16 20:19N 39°33' W 076°05'0 0.0
2017-Sep-16 19:49N 39°33' W 076°05'0 0.0
2017-Sep-16 19:25N 39°33' W 076°05'0 0.0
2017-Sep-16 18:58N 39°33' W 076°05'0 0.0
2017-Sep-16 18:13N 39°33' W 076°05'0 0.0
2017-Sep-16 17:58N 39°33' W 076°05'0 0.0
2017-Sep-16 17:28N 39°33' W 076°05'0 0.0
2017-Sep-16 16:58N 39°33' W 076°05'0 0.0
2017-Sep-16 16:25N 39°33' W 076°05'0 0.0
2017-Sep-16 15:58N 39°33' W 076°05'0 0.0
2017-Sep-16 15:28N 39°33' W 076°05'0 0.0
2017-Sep-16 14:55N 39°33' W 076°05'0 0.0
2017-Sep-16 14:25N 39°33' W 076°05'0 0.0
2017-Sep-16 13:58N 39°33' W 076°05'0 0.0
2017-Sep-16 13:28N 39°33' W 076°05'0 0.0
2017-Sep-16 12:58N 39°33' W 076°05'0 0.0
2017-Sep-16 12:28N 39°33' W 076°05'0 0.0
2017-Sep-16 11:52N 39°33' W 076°05'0 0.0
2017-Sep-16 11:28N 39°33' W 076°05'0 0.0
2017-Sep-16 10:58N 39°33' W 076°05'0 0.0
2017-Sep-16 10:28N 39°33' W 076°05'0 0.0
2017-Sep-16 09:55N 39°33' W 076°05'0 0.0
2017-Sep-16 09:28N 39°33' W 076°05'0 0.0
2017-Sep-16 08:58N 39°33' W 076°05'0 0.0
2017-Sep-16 08:28N 39°33' W 076°05'0 0.0
2017-Sep-16 07:58N 39°33' W 076°05'0 0.0
2017-Sep-16 07:25N 39°33' W 076°05'0 0.0
2017-Sep-16 06:58N 39°33' W 076°05'0 0.0
2017-Sep-16 06:28N 39°33' W 076°05'0 0.0
2017-Sep-16 05:52N 39°33' W 076°05'0 0.0
2017-Sep-16 05:28N 39°33' W 076°05'0 0.0
2017-Sep-16 04:55N 39°33' W 076°05'0 0.0
2017-Sep-16 04:28N 39°33' W 076°05'0 0.0
2017-Sep-16 03:52N 39°33' W 076°05'0 0.0
2017-Sep-16 03:28N 39°33' W 076°05'0 0.0
2017-Sep-16 02:55N 39°33' W 076°05'0 0.0
2017-Sep-16 02:28N 39°33' W 076°05'0 0.0
2017-Sep-16 01:49N 39°33' W 076°05'0 0.0
2017-Sep-16 01:16N 39°33' W 076°05'0 0.0
2017-Sep-16 00:58N 39°33' W 076°05'0 0.0
2017-Sep-16 00:28N 39°33' W 076°05'0 0.0
2017-Sep-15 23:58N 39°33' W 076°05'0 0.0
2017-Sep-15 23:28N 39°33' W 076°05'0 0.0
2017-Sep-15 22:58N 39°33' W 076°05'0 0.0
2017-Sep-15 22:25N 39°33' W 076°05'0 0.0
2017-Sep-15 21:55N 39°33' W 076°05'0 0.0
2017-Sep-15 21:10N 39°33' W 076°05'0 0.0
2017-Sep-15 20:58N 39°33' W 076°05'0 0.0
2017-Sep-15 20:28N 39°33' W 076°05'0 0.0
2017-Sep-15 19:49N 39°33' W 076°05'0 0.0
2017-Sep-15 19:28N 39°33' W 076°05'0 0.0
2017-Sep-15 18:55N 39°33' W 076°05'0 0.0
2017-Sep-15 17:16N 39°33' W 076°05'0 0.0
2017-Sep-15 16:58N 39°33' W 076°05'1 1.3
2017-Sep-15 16:30N 39°32' W 076°05'3 5.9
2017-Sep-15 15:59N 39°29' W 076°05'3 5.7
2017-Sep-15 15:30N 39°27' W 076°02'3 4.7
2017-Sep-15 14:58N 39°27' W 075°59'3 7.2
2017-Sep-15 14:30N 39°30' W 075°56'4 7.4
2017-Sep-15 14:00N 39°32' W 075°52'4 7.6
2017-Sep-15 13:30N 39°32' W 075°47'4 7.5
2017-Sep-15 13:00N 39°33' W 075°42'3 6.0
2017-Sep-15 12:30N 39°33' W 075°38'3 6.4
2017-Sep-15 12:00N 39°34' W 075°34'1 2.6
2017-Sep-15 11:30N 39°35' W 075°35'0 0.8
2017-Sep-15 10:59N 39°34' W 075°35'0 0.0
2017-Sep-15 10:29N 39°34' W 075°35'0 0.0
2017-Sep-15 09:59N 39°34' W 075°35'0 0.0
2017-Sep-15 09:29N 39°34' W 075°35'0 0.0
2017-Sep-15 08:59N 39°34' W 075°35'0 0.0
2017-Sep-15 08:29N 39°34' W 075°35'0 0.0
2017-Sep-15 07:59N 39°34' W 075°35'0 0.0
2017-Sep-15 07:29N 39°34' W 075°35'0 0.0
2017-Sep-15 06:59N 39°34' W 075°35'0 0.0
2017-Sep-15 06:29N 39°34' W 075°35'0 0.0
2017-Sep-15 05:59N 39°34' W 075°35'0 0.0
2017-Sep-15 05:29N 39°34' W 075°35'0 0.0
2017-Sep-15 04:59N 39°34' W 075°35'0 0.0
2017-Sep-15 04:29N 39°34' W 075°35'0 0.0
2017-Sep-15 03:59N 39°34' W 075°35'0 0.0
2017-Sep-15 03:29N 39°34' W 075°35'0 0.0
2017-Sep-15 02:59N 39°34' W 075°35'0 0.0
2017-Sep-15 02:29N 39°34' W 075°35'0 0.0
2017-Sep-15 01:59N 39°34' W 075°35'0 0.0
2017-Sep-15 01:29N 39°34' W 075°35'0 0.0
2017-Sep-15 00:59N 39°34' W 075°35'0 0.0
2017-Sep-15 00:29N 39°34' W 075°35'0 0.0
2017-Sep-14 23:59N 39°34' W 075°35'0 0.0
2017-Sep-14 23:29N 39°34' W 075°35'0 0.0
2017-Sep-14 22:59N 39°34' W 075°35'0 0.0
2017-Sep-14 22:29N 39°34' W 075°35'0 0.0
2017-Sep-14 21:59N 39°34' W 075°35'0 0.0
2017-Sep-14 21:29N 39°34' W 075°35'0 0.0
2017-Sep-14 20:59N 39°34' W 075°35'0 0.0
2017-Sep-14 20:29N 39°34' W 075°35'0 0.0
2017-Sep-14 19:59N 39°34' W 075°35'0 0.0
2017-Sep-14 19:29N 39°34' W 075°35'0 0.0
2017-Sep-14 18:59N 39°34' W 075°35'0 0.0
2017-Sep-14 18:29N 39°34' W 075°35'0 0.0
2017-Sep-14 17:59N 39°34' W 075°35'0 0.0
2017-Sep-14 17:29N 39°34' W 075°35'0 0.0
2017-Sep-14 16:59N 39°34' W 075°35'0 0.0
2017-Sep-14 16:29N 39°34' W 075°35'0 0.0
2017-Sep-14 15:59N 39°34' W 075°35'0 0.0
2017-Sep-14 15:29N 39°34' W 075°35'0 0.0
2017-Sep-14 14:59N 39°34' W 075°35'0 0.0
2017-Sep-14 14:29N 39°34' W 075°35'0 0.0
2017-Sep-14 13:59N 39°34' W 075°35'0 0.0
2017-Sep-14 13:29N 39°34' W 075°35'0 0.0
2017-Sep-14 12:59N 39°34' W 075°35'0 0.0
2017-Sep-14 12:29N 39°34' W 075°35'0 0.0
2017-Sep-14 11:59N 39°34' W 075°35'0 0.0
2017-Sep-14 11:29N 39°34' W 075°35'0 0.0
2017-Sep-14 10:59N 39°34' W 075°35'0 0.0
2017-Sep-14 10:29N 39°34' W 075°35'0 0.0
2017-Sep-14 09:59N 39°34' W 075°35'0 0.0
2017-Sep-14 09:29N 39°34' W 075°35'0 0.0
2017-Sep-14 08:59N 39°34' W 075°35'0 0.0
2017-Sep-14 08:29N 39°34' W 075°35'0 0.0
2017-Sep-14 07:59N 39°34' W 075°35'0 0.0
2017-Sep-14 07:29N 39°34' W 075°35'0 0.0
2017-Sep-14 06:59N 39°34' W 075°35'0 0.0
2017-Sep-14 06:29N 39°34' W 075°35'0 0.0
2017-Sep-14 05:59N 39°34' W 075°35'0 0.0
2017-Sep-14 05:29N 39°34' W 075°35'0 0.0
2017-Sep-14 04:59N 39°34' W 075°35'0 0.0
2017-Sep-14 04:29N 39°34' W 075°35'0 0.0
2017-Sep-14 03:59N 39°34' W 075°35'0 0.0
2017-Sep-14 03:29N 39°34' W 075°35'0 0.0
2017-Sep-14 02:59N 39°34' W 075°35'0 0.0
2017-Sep-14 02:29N 39°34' W 075°35'0 0.0
2017-Sep-14 01:59N 39°34' W 075°35'0 0.0
2017-Sep-14 01:29N 39°34' W 075°35'0 0.0
2017-Sep-14 00:59N 39°34' W 075°35'0 0.0
2017-Sep-14 00:29N 39°34' W 075°35'0 0.0
2017-Sep-13 23:59N 39°34' W 075°35'0 0.0
2017-Sep-13 23:29N 39°34' W 075°35'0 0.0
2017-Sep-13 22:59N 39°34' W 075°35'0 0.0
2017-Sep-13 22:29N 39°34' W 075°35'0 0.0
2017-Sep-13 21:59N 39°34' W 075°35'0 0.0
2017-Sep-13 21:29N 39°34' W 075°35'0 0.0
2017-Sep-13 20:59N 39°34' W 075°35'0 0.0
2017-Sep-13 20:29N 39°34' W 075°35'0 0.0
2017-Sep-13 19:59N 39°34' W 075°35'0 0.0
2017-Sep-13 19:29N 39°34' W 075°35'0 0.0
2017-Sep-13 18:59N 39°34' W 075°35'0 0.0
2017-Sep-13 18:29N 39°34' W 075°35'0 0.0
2017-Sep-13 17:59N 39°34' W 075°35'0 0.0
2017-Sep-13 17:29N 39°34' W 075°35'0 0.0
2017-Sep-13 16:59N 39°34' W 075°35'0 0.0
2017-Sep-13 16:29N 39°34' W 075°35'0 0.0
2017-Sep-13 15:59N 39°34' W 075°35'0 0.0
2017-Sep-13 15:29N 39°34' W 075°35'1 2.8
2017-Sep-13 15:01N 39°34' W 075°34'2 4.2
2017-Sep-13 14:31N 39°32' W 075°33'2 4.0
2017-Sep-13 14:00N 39°30' W 075°33'2 4.5
2017-Sep-13 13:30N 39°28' W 075°33'3 5.2
2017-Sep-13 13:00N 39°26' W 075°31'2 4.8
2017-Sep-13 12:30N 39°24' W 075°29'3 5.1
2017-Sep-13 12:00N 39°22' W 075°27'3 5.1
2017-Sep-13 11:30N 39°20' W 075°25'3 5.5
2017-Sep-13 11:00N 39°18' W 075°22'3 6.0
2017-Sep-13 10:30N 39°16' W 075°20'3 6.2
2017-Sep-13 10:00N 39°13' W 075°17'3 6.4
2017-Sep-13 09:30N 39°10' W 075°15'3 6.5
2017-Sep-13 09:00N 39°08' W 075°13'3 6.7
2017-Sep-13 08:30N 39°05' W 075°11'3 6.8
2017-Sep-13 08:00N 39°02' W 075°08'3 6.7
2017-Sep-13 07:30N 38°59' W 075°06'4 7.0
2017-Sep-13 07:00N 38°56' W 075°04'4 7.1
2017-Sep-13 06:30N 38°53' W 075°02'4 7.2
2017-Sep-13 06:00N 38°50' W 075°00'3 6.9
2017-Sep-13 05:30N 38°51' W 074°56'3 6.6
2017-Sep-13 05:00N 38°53' W 074°53'4 7.0
2017-Sep-13 04:29N 38°55' W 074°49'3 7.0
2017-Sep-13 04:00N 38°58' W 074°46'3 6.7
2017-Sep-13 03:30N 38°60' W 074°43'3 6.5
2017-Sep-13 03:00N 39°02' W 074°40'3 6.4
2017-Sep-13 02:30N 39°05' W 074°38'3 6.4
2017-Sep-13 02:00N 39°07' W 074°35'3 6.3
2017-Sep-13 01:30N 39°10' W 074°32'3 6.2
2017-Sep-13 00:59N 39°12' W 074°30'3 6.2
2017-Sep-13 00:30N 39°15' W 074°27'4 6.2
2017-Sep-12 23:55N 39°18' W 074°24'4 6.3
2017-Sep-12 23:17N 39°20' W 074°21'15 6.6
2017-Sep-12 20:59N 39°33' W 074°11'3 7.1
2017-Sep-12 20:30N 39°36' W 074°09'3 6.8
2017-Sep-12 20:00N 39°39' W 074°07'3 6.6
2017-Sep-12 19:30N 39°43' W 074°05'4 6.3
2017-Sep-12 18:55N 39°46' W 074°04'32 6.6
2017-Sep-12 14:04N 40°18' W 073°57'19 1.3
2017-Sep-11 23:04N 40°36' W 074°03'0 8.1
2017-Sep-11 23:00N 40°37' W 074°03'4 7.2
2017-Sep-11 22:30N 40°40' W 074°01'4 8.2
2017-Sep-11 22:00N 40°44' W 073°58'6 8.6
2017-Sep-11 21:22N 40°48' W 073°54'  
Track history (hours):
 
Tides and Currents Weather Stations Pressure Air Temp Water Temp Dewpoint Dewpoint Depression Visibility Wind Speed Wind Dir Waves Ship Positions

Atsa

Owner: Gardner, Hartley J, Phoenix, AZ. More information available from US FCC via Universal Licensing System and Coast Guard Vessel Documentation Center.

Last reported at 2017-Sep-19 18:20 UTC. Time now 2017-Sep-19 18:50 UTC.
Position N 39°08' W 076°14'.

Length 15 m.

MMSI: 366986060.

Date/timePositionNaut miles runAvg speedWind from/ knotsBaromVisibWave heightAir tempDewpointWater temp
2017-Sep-19 18:20N 39°08' W 076°14'0 0.0
2017-Sep-19 17:59N 39°08' W 076°14'0 0.0
2017-Sep-19 17:29N 39°08' W 076°14'1 2.5
2017-Sep-19 17:00N 39°07' W 076°16'2 4.3
2017-Sep-19 16:30N 39°05' W 076°16'3 6.6
2017-Sep-19 15:59N 39°08' W 076°19'4 7.7
2017-Sep-19 15:30N 39°12' W 076°17'4 7.6
2017-Sep-19 15:00N 39°15' W 076°15'4 7.7
2017-Sep-19 14:30N 39°18' W 076°13'4 7.4
2017-Sep-19 14:00N 39°21' W 076°09'4 7.3
2017-Sep-19 13:30N 39°23' W 076°05'3 6.5
2017-Sep-19 13:00N 39°23' W 076°01'3 5.5
2017-Sep-19 12:30N 39°23' W 075°57'3 5.8
2017-Sep-19 12:00N 39°22' W 075°54'1 1.0
2017-Sep-19 11:29N 39°22' W 075°53'0 0.0
2017-Sep-19 10:59N 39°22' W 075°53'0 0.0
2017-Sep-19 10:29N 39°22' W 075°53'0 0.0
2017-Sep-19 09:59N 39°22' W 075°53'0 0.0
2017-Sep-19 09:29N 39°22' W 075°53'0 0.0
2017-Sep-19 08:59N 39°22' W 075°53'0 0.0
2017-Sep-19 08:29N 39°22' W 075°53'0 0.0
2017-Sep-19 07:59N 39°22' W 075°53'0 0.0
2017-Sep-19 07:29N 39°22' W 075°53'0 0.0
2017-Sep-19 06:59N 39°22' W 075°53'0 0.0
2017-Sep-19 06:29N 39°22' W 075°53'0 0.0
2017-Sep-19 05:59N 39°22' W 075°53'0 0.0
2017-Sep-19 05:29N 39°22' W 075°53'0 0.0
2017-Sep-19 04:59N 39°22' W 075°53'0 0.0
2017-Sep-19 04:29N 39°22' W 075°53'0 0.0
2017-Sep-19 03:59N 39°22' W 075°53'0 0.0
2017-Sep-19 03:29N 39°22' W 075°53'0 0.0
2017-Sep-19 02:59N 39°22' W 075°53'0 0.0
2017-Sep-19 02:29N 39°22' W 075°53'0 0.0
2017-Sep-19 01:59N 39°22' W 075°53'0 0.0
2017-Sep-19 01:29N 39°22' W 075°53'0 0.0
2017-Sep-19 00:59N 39°22' W 075°53'0 0.0
2017-Sep-19 00:29N 39°22' W 075°53'0 0.0
2017-Sep-18 23:59N 39°22' W 075°53'0 0.0
2017-Sep-18 23:29N 39°22' W 075°53'0 0.0
2017-Sep-18 22:59N 39°22' W 075°53'0 0.0
2017-Sep-18 22:29N 39°22' W 075°53'0 0.0
2017-Sep-18 21:59N 39°22' W 075°53'0 0.0
2017-Sep-18 21:26N 39°22' W 075°53'0 0.0
2017-Sep-18 20:59N 39°22' W 075°53'0 0.0
2017-Sep-18 20:29N 39°22' W 075°53'0 0.0
2017-Sep-18 19:56N 39°22' W 075°53'0 0.0
2017-Sep-18 19:29N 39°22' W 075°53'0 0.0
2017-Sep-18 18:59N 39°22' W 075°53'0 0.0
2017-Sep-18 18:29N 39°22' W 075°53'0 0.0
2017-Sep-18 17:59N 39°22' W 075°53'0 0.0
2017-Sep-18 17:29N 39°22' W 075°53'0 0.0
2017-Sep-18 16:59N 39°22' W 075°53'0 0.0
2017-Sep-18 16:29N 39°22' W 075°53'0 0.0
2017-Sep-18 15:53N 39°22' W 075°53'0 0.0
2017-Sep-18 15:29N 39°22' W 075°53'0 0.0
2017-Sep-18 14:53N 39°22' W 075°53'0 0.0
2017-Sep-18 14:29N 39°22' W 075°53'0 0.0
2017-Sep-18 13:59N 39°22' W 075°53'0 0.0
2017-Sep-18 13:29N 39°22' W 075°53'0 0.0
2017-Sep-18 12:59N 39°22' W 075°53'0 0.0
2017-Sep-18 12:23N 39°22' W 075°53'0 0.0
2017-Sep-18 11:59N 39°22' W 075°53'0 0.0
2017-Sep-18 11:26N 39°22' W 075°53'0 0.0
2017-Sep-18 10:50N 39°22' W 075°53'0 0.0
2017-Sep-18 10:26N 39°22' W 075°53'0 0.0
2017-Sep-18 09:26N 39°22' W 075°53'0 0.0
2017-Sep-18 08:59N 39°22' W 075°53'0 0.0
2017-Sep-18 08:17N 39°22' W 075°53'0 0.0
2017-Sep-18 07:59N 39°22' W 075°53'0 0.0
2017-Sep-18 07:17N 39°22' W 075°53'0 0.0
2017-Sep-18 06:56N 39°22' W 075°53'0 0.0
2017-Sep-18 06:26N 39°22' W 075°53'0 0.0
2017-Sep-18 05:59N 39°22' W 075°53'0 0.0
2017-Sep-18 05:29N 39°22' W 075°53'0 0.0
2017-Sep-18 04:59N 39°22' W 075°53'0 0.0
2017-Sep-18 04:26N 39°22' W 075°53'0 0.0
2017-Sep-18 03:59N 39°22' W 075°53'0 0.0
2017-Sep-18 03:29N 39°22' W 075°53'0 0.0
2017-Sep-18 02:59N 39°22' W 075°53'0 0.0
2017-Sep-18 02:29N 39°22' W 075°53'0 0.0
2017-Sep-18 01:59N 39°22' W 075°53'0 0.0
2017-Sep-18 01:26N 39°22' W 075°53'0 0.0
2017-Sep-18 00:59N 39°22' W 075°53'0 0.0
2017-Sep-18 00:29N 39°22' W 075°53'0 0.0
2017-Sep-17 23:59N 39°22' W 075°53'0 0.0
2017-Sep-17 23:26N 39°22' W 075°53'0 0.0
2017-Sep-17 22:47N 39°22' W 075°53'0 0.0
2017-Sep-17 22:23N 39°22' W 075°53'0 0.0
2017-Sep-17 21:53N 39°22' W 075°53'0 0.0
2017-Sep-17 21:11N 39°22' W 075°53'0 0.0
2017-Sep-17 20:50N 39°22' W 075°53'0 0.0
2017-Sep-17 20:29N 39°22' W 075°53'0 0.0
2017-Sep-17 19:23N 39°22' W 075°53'0 0.0
2017-Sep-17 18:59N 39°22' W 075°53'0 0.0
2017-Sep-17 18:29N 39°22' W 075°53'0 0.0
2017-Sep-17 17:56N 39°22' W 075°53'0 0.0
2017-Sep-17 17:29N 39°22' W 075°53'0 0.0
2017-Sep-17 16:59N 39°22' W 075°53'0 0.0
2017-Sep-17 16:29N 39°22' W 075°53'0 0.0
2017-Sep-17 15:59N 39°22' W 075°53'0 0.0
2017-Sep-17 15:30N 39°22' W 075°53'2 3.6
2017-Sep-17 15:00N 39°22' W 075°55'2 5.0
2017-Sep-17 14:30N 39°22' W 075°59'3 5.3
2017-Sep-17 14:00N 39°23' W 076°02'3 4.5
2017-Sep-17 13:21N 39°26' W 076°02'2 6.5
2017-Sep-17 13:00N 39°28' W 076°03'3 5.5
2017-Sep-17 12:25N 39°31' W 076°05'2 4.3
2017-Sep-17 11:55N 39°33' W 076°05'0 0.0
2017-Sep-17 11:25N 39°33' W 076°05'0 0.0
2017-Sep-17 10:58N 39°33' W 076°05'0 0.0
2017-Sep-17 10:28N 39°33' W 076°05'0 0.0
2017-Sep-17 09:59N 39°33' W 076°05'0 0.0
2017-Sep-17 09:29N 39°33' W 076°05'0 0.0
2017-Sep-17 08:58N 39°33' W 076°05'0 0.0
2017-Sep-17 08:25N 39°33' W 076°05'0 0.0
2017-Sep-17 07:59N 39°33' W 076°05'0 0.0
2017-Sep-17 07:28N 39°33' W 076°05'0 0.0
2017-Sep-17 06:59N 39°33' W 076°05'0 0.0
2017-Sep-17 06:28N 39°33' W 076°05'0 0.0
2017-Sep-17 05:58N 39°33' W 076°05'0 0.0
2017-Sep-17 05:25N 39°33' W 076°05'0 0.0
2017-Sep-17 04:58N 39°33' W 076°05'0 0.0
2017-Sep-17 04:22N 39°33' W 076°05'0 0.0
2017-Sep-17 03:58N 39°33' W 076°05'0 0.0
2017-Sep-17 03:28N 39°33' W 076°05'0 0.0
2017-Sep-17 02:55N 39°33' W 076°05'0 0.0
2017-Sep-17 02:28N 39°33' W 076°05'0 0.0
2017-Sep-17 01:58N 39°33' W 076°05'0 0.0
2017-Sep-17 01:28N 39°33' W 076°05'0 0.0
2017-Sep-17 00:58N 39°33' W 076°05'0 0.0
2017-Sep-17 00:25N 39°33' W 076°05'0 0.0
2017-Sep-16 23:58N 39°33' W 076°05'0 0.0
2017-Sep-16 23:22N 39°33' W 076°05'0 0.0
2017-Sep-16 22:58N 39°33' W 076°05'0 0.0
2017-Sep-16 22:28N 39°33' W 076°05'0 0.0
2017-Sep-16 21:58N 39°33' W 076°05'0 0.0
2017-Sep-16 21:28N 39°33' W 076°05'0 0.0
2017-Sep-16 20:58N 39°33' W 076°05'0 0.0
2017-Sep-16 20:19N 39°33' W 076°05'0 0.0
2017-Sep-16 19:49N 39°33' W 076°05'0 0.0
2017-Sep-16 19:25N 39°33' W 076°05'0 0.0
2017-Sep-16 18:58N 39°33' W 076°05'0 0.0
2017-Sep-16 18:13N 39°33' W 076°05'0 0.0
2017-Sep-16 17:58N 39°33' W 076°05'0 0.0
2017-Sep-16 17:28N 39°33' W 076°05'0 0.0
2017-Sep-16 16:58N 39°33' W 076°05'0 0.0
2017-Sep-16 16:25N 39°33' W 076°05'0 0.0
2017-Sep-16 15:58N 39°33' W 076°05'0 0.0
2017-Sep-16 15:28N 39°33' W 076°05'0 0.0
2017-Sep-16 14:55N 39°33' W 076°05'0 0.0
2017-Sep-16 14:25N 39°33' W 076°05'0 0.0
2017-Sep-16 13:58N 39°33' W 076°05'0 0.0
2017-Sep-16 13:28N 39°33' W 076°05'0 0.0
2017-Sep-16 12:58N 39°33' W 076°05'0 0.0
2017-Sep-16 12:28N 39°33' W 076°05'0 0.0
2017-Sep-16 11:52N 39°33' W 076°05'0 0.0
2017-Sep-16 11:28N 39°33' W 076°05'0 0.0
2017-Sep-16 10:58N 39°33' W 076°05'0 0.0
2017-Sep-16 10:28N 39°33' W 076°05'0 0.0
2017-Sep-16 09:55N 39°33' W 076°05'0 0.0
2017-Sep-16 09:28N 39°33' W 076°05'0 0.0
2017-Sep-16 08:58N 39°33' W 076°05'0 0.0
2017-Sep-16 08:28N 39°33' W 076°05'0 0.0
2017-Sep-16 07:58N 39°33' W 076°05'0 0.0
2017-Sep-16 07:25N 39°33' W 076°05'0 0.0
2017-Sep-16 06:58N 39°33' W 076°05'0 0.0
2017-Sep-16 06:28N 39°33' W 076°05'0 0.0
2017-Sep-16 05:52N 39°33' W 076°05'0 0.0
2017-Sep-16 05:28N 39°33' W 076°05'0 0.0
2017-Sep-16 04:55N 39°33' W 076°05'0 0.0
2017-Sep-16 04:28N 39°33' W 076°05'0 0.0
2017-Sep-16 03:52N 39°33' W 076°05'0 0.0
2017-Sep-16 03:28N 39°33' W 076°05'0 0.0
2017-Sep-16 02:55N 39°33' W 076°05'0 0.0
2017-Sep-16 02:28N 39°33' W 076°05'0 0.0
2017-Sep-16 01:49N 39°33' W 076°05'0 0.0
2017-Sep-16 01:16N 39°33' W 076°05'0 0.0
2017-Sep-16 00:58N 39°33' W 076°05'0 0.0
2017-Sep-16 00:28N 39°33' W 076°05'0 0.0
2017-Sep-15 23:58N 39°33' W 076°05'0 0.0
2017-Sep-15 23:28N 39°33' W 076°05'0 0.0
2017-Sep-15 22:58N 39°33' W 076°05'0 0.0
2017-Sep-15 22:25N 39°33' W 076°05'0 0.0
2017-Sep-15 21:55N 39°33' W 076°05'0 0.0
2017-Sep-15 21:10N 39°33' W 076°05'0 0.0
2017-Sep-15 20:58N 39°33' W 076°05'0 0.0
2017-Sep-15 20:28N 39°33' W 076°05'0 0.0
2017-Sep-15 19:49N 39°33' W 076°05'0 0.0
2017-Sep-15 19:28N 39°33' W 076°05'0 0.0
2017-Sep-15 18:55N 39°33' W 076°05'0 0.0
2017-Sep-15 17:16N 39°33' W 076°05'0 0.0
2017-Sep-15 16:58N 39°33' W 076°05'1 1.3
2017-Sep-15 16:30N 39°32' W 076°05'3 5.9
2017-Sep-15 15:59N 39°29' W 076°05'3 5.7
2017-Sep-15 15:30N 39°27' W 076°02'3 4.7
2017-Sep-15 14:58N 39°27' W 075°59'3 7.2
2017-Sep-15 14:30N 39°30' W 075°56'4 7.4
2017-Sep-15 14:00N 39°32' W 075°52'4 7.6
2017-Sep-15 13:30N 39°32' W 075°47'4 7.5
2017-Sep-15 13:00N 39°33' W 075°42'3 6.0
2017-Sep-15 12:30N 39°33' W 075°38'3 6.4
2017-Sep-15 12:00N 39°34' W 075°34'1 2.6
2017-Sep-15 11:30N 39°35' W 075°35'0 0.8
2017-Sep-15 10:59N 39°34' W 075°35'0 0.0
2017-Sep-15 10:29N 39°34' W 075°35'0 0.0
2017-Sep-15 09:59N 39°34' W 075°35'0 0.0
2017-Sep-15 09:29N 39°34' W 075°35'0 0.0
2017-Sep-15 08:59N 39°34' W 075°35'0 0.0
2017-Sep-15 08:29N 39°34' W 075°35'0 0.0
2017-Sep-15 07:59N 39°34' W 075°35'0 0.0
2017-Sep-15 07:29N 39°34' W 075°35'0 0.0
2017-Sep-15 06:59N 39°34' W 075°35'0 0.0
2017-Sep-15 06:29N 39°34' W 075°35'0 0.0
2017-Sep-15 05:59N 39°34' W 075°35'0 0.0
2017-Sep-15 05:29N 39°34' W 075°35'0 0.0
2017-Sep-15 04:59N 39°34' W 075°35'0 0.0
2017-Sep-15 04:29N 39°34' W 075°35'0 0.0
2017-Sep-15 03:59N 39°34' W 075°35'0 0.0
2017-Sep-15 03:29N 39°34' W 075°35'0 0.0
2017-Sep-15 02:59N 39°34' W 075°35'0 0.0
2017-Sep-15 02:29N 39°34' W 075°35'0 0.0
2017-Sep-15 01:59N 39°34' W 075°35'0 0.0
2017-Sep-15 01:29N 39°34' W 075°35'0 0.0
2017-Sep-15 00:59N 39°34' W 075°35'0 0.0
2017-Sep-15 00:29N 39°34' W 075°35'0 0.0
2017-Sep-14 23:59N 39°34' W 075°35'0 0.0
2017-Sep-14 23:29N 39°34' W 075°35'0 0.0
2017-Sep-14 22:59N 39°34' W 075°35'0 0.0
2017-Sep-14 22:29N 39°34' W 075°35'0 0.0
2017-Sep-14 21:59N 39°34' W 075°35'0 0.0
2017-Sep-14 21:29N 39°34' W 075°35'0 0.0
2017-Sep-14 20:59N 39°34' W 075°35'0 0.0
2017-Sep-14 20:29N 39°34' W 075°35'0 0.0
2017-Sep-14 19:59N 39°34' W 075°35'0 0.0
2017-Sep-14 19:29N 39°34' W 075°35'0 0.0
2017-Sep-14 18:59N 39°34' W 075°35'0 0.0
2017-Sep-14 18:29N 39°34' W 075°35'0 0.0
2017-Sep-14 17:59N 39°34' W 075°35'0 0.0
2017-Sep-14 17:29N 39°34' W 075°35'0 0.0
2017-Sep-14 16:59N 39°34' W 075°35'0 0.0
2017-Sep-14 16:29N 39°34' W 075°35'0 0.0
2017-Sep-14 15:59N 39°34' W 075°35'0 0.0
2017-Sep-14 15:29N 39°34' W 075°35'0 0.0
2017-Sep-14 14:59N 39°34' W 075°35'0 0.0
2017-Sep-14 14:29N 39°34' W 075°35'0 0.0
2017-Sep-14 13:59N 39°34' W 075°35'0 0.0
2017-Sep-14 13:29N 39°34' W 075°35'0 0.0
2017-Sep-14 12:59N 39°34' W 075°35'0 0.0
2017-Sep-14 12:29N 39°34' W 075°35'0 0.0
2017-Sep-14 11:59N 39°34' W 075°35'0 0.0
2017-Sep-14 11:29N 39°34' W 075°35'0 0.0
2017-Sep-14 10:59N 39°34' W 075°35'0 0.0
2017-Sep-14 10:29N 39°34' W 075°35'0 0.0
2017-Sep-14 09:59N 39°34' W 075°35'0 0.0
2017-Sep-14 09:29N 39°34' W 075°35'0 0.0
2017-Sep-14 08:59N 39°34' W 075°35'0 0.0
2017-Sep-14 08:29N 39°34' W 075°35'0 0.0
2017-Sep-14 07:59N 39°34' W 075°35'0 0.0
2017-Sep-14 07:29N 39°34' W 075°35'0 0.0
2017-Sep-14 06:59N 39°34' W 075°35'0 0.0
2017-Sep-14 06:29N 39°34' W 075°35'0 0.0
2017-Sep-14 05:59N 39°34' W 075°35'0 0.0
2017-Sep-14 05:29N 39°34' W 075°35'0 0.0
2017-Sep-14 04:59N 39°34' W 075°35'0 0.0
2017-Sep-14 04:29N 39°34' W 075°35'0 0.0
2017-Sep-14 03:59N 39°34' W 075°35'0 0.0
2017-Sep-14 03:29N 39°34' W 075°35'0 0.0
2017-Sep-14 02:59N 39°34' W 075°35'0 0.0
2017-Sep-14 02:29N 39°34' W 075°35'0 0.0
2017-Sep-14 01:59N 39°34' W 075°35'0 0.0
2017-Sep-14 01:29N 39°34' W 075°35'0 0.0
2017-Sep-14 00:59N 39°34' W 075°35'0 0.0
2017-Sep-14 00:29N 39°34' W 075°35'0 0.0
2017-Sep-13 23:59N 39°34' W 075°35'0 0.0
2017-Sep-13 23:29N 39°34' W 075°35'0 0.0
2017-Sep-13 22:59N 39°34' W 075°35'0 0.0
2017-Sep-13 22:29N 39°34' W 075°35'0 0.0
2017-Sep-13 21:59N 39°34' W 075°35'0 0.0
2017-Sep-13 21:29N 39°34' W 075°35'0 0.0
2017-Sep-13 20:59N 39°34' W 075°35'0 0.0
2017-Sep-13 20:29N 39°34' W 075°35'0 0.0
2017-Sep-13 19:59N 39°34' W 075°35'0 0.0
2017-Sep-13 19:29N 39°34' W 075°35'0 0.0
2017-Sep-13 18:59N 39°34' W 075°35'0 0.0
2017-Sep-13 18:29N 39°34' W 075°35'0 0.0
2017-Sep-13 17:59N 39°34' W 075°35'0 0.0
2017-Sep-13 17:29N 39°34' W 075°35'0 0.0
2017-Sep-13 16:59N 39°34' W 075°35'0 0.0
2017-Sep-13 16:29N 39°34' W 075°35'0 0.0
2017-Sep-13 15:59N 39°34' W 075°35'0 0.0
2017-Sep-13 15:29N 39°34' W 075°35'1 2.8
2017-Sep-13 15:01N 39°34' W 075°34'2 4.2
2017-Sep-13 14:31N 39°32' W 075°33'2 4.0
2017-Sep-13 14:00N 39°30' W 075°33'2 4.5
2017-Sep-13 13:30N 39°28' W 075°33'3 5.2
2017-Sep-13 13:00N 39°26' W 075°31'2 4.8
2017-Sep-13 12:30N 39°24' W 075°29'3 5.1
2017-Sep-13 12:00N 39°22' W 075°27'3 5.1
2017-Sep-13 11:30N 39°20' W 075°25'3 5.5
2017-Sep-13 11:00N 39°18' W 075°22'3 6.0
2017-Sep-13 10:30N 39°16' W 075°20'3 6.2
2017-Sep-13 10:00N 39°13' W 075°17'3 6.4
2017-Sep-13 09:30N 39°10' W 075°15'3 6.5
2017-Sep-13 09:00N 39°08' W 075°13'3 6.7
2017-Sep-13 08:30N 39°05' W 075°11'3 6.8
2017-Sep-13 08:00N 39°02' W 075°08'3 6.7
2017-Sep-13 07:30N 38°59' W 075°06'4 7.0
2017-Sep-13 07:00N 38°56' W 075°04'4 7.1
2017-Sep-13 06:30N 38°53' W 075°02'4 7.2
2017-Sep-13 06:00N 38°50' W 075°00'3 6.9
2017-Sep-13 05:30N 38°51' W 074°56'3 6.6
2017-Sep-13 05:00N 38°53' W 074°53'4 7.0
2017-Sep-13 04:29N 38°55' W 074°49'3 7.0
2017-Sep-13 04:00N 38°58' W 074°46'3 6.7
2017-Sep-13 03:30N 38°60' W 074°43'3 6.5
2017-Sep-13 03:00N 39°02' W 074°40'3 6.4
2017-Sep-13 02:30N 39°05' W 074°38'3 6.4
2017-Sep-13 02:00N 39°07' W 074°35'3 6.3
2017-Sep-13 01:30N 39°10' W 074°32'3 6.2
2017-Sep-13 00:59N 39°12' W 074°30'3 6.2
2017-Sep-13 00:30N 39°15' W 074°27'4 6.2
2017-Sep-12 23:55N 39°18' W 074°24'4 6.3
2017-Sep-12 23:17N 39°20' W 074°21'15 6.6
2017-Sep-12 20:59N 39°33' W 074°11'3 7.1
2017-Sep-12 20:30N 39°36' W 074°09'3 6.8
2017-Sep-12 20:00N 39°39' W 074°07'3 6.6
2017-Sep-12 19:30N 39°43' W 074°05'4 6.3
2017-Sep-12 18:55N 39°46' W 074°04'32 6.6
2017-Sep-12 14:04N 40°18' W 073°57'19 1.3
2017-Sep-11 23:04N 40°36' W 074°03'0 8.1
2017-Sep-11 23:00N 40°37' W 074°03'4 7.2
2017-Sep-11 22:30N 40°40' W 074°01'4 8.2
2017-Sep-11 22:00N 40°44' W 073°58'6 8.6
2017-Sep-11 21:22N 40°48' W 073°54'  

Dump ship's entire track history